This is the latest recevied weather packets stored in our database for station/object SP9EPI-13. If no packets are shown the sender has not sent any weather packets the latest 10 day(s).
| Time | Temp. | Humidity | Pressure | Rain* | Wind** | Luminosity | Snow |
|---|---|---|---|---|---|---|---|
| 1777155600 | 12.78° C | 59% | 1003.3 hPa | - | - | - | - |
| 1777155000 | 12.78° C | 59% | 1003.3 hPa | - | - | - | - |
| 1777154401 | 12.78° C | 59% | 1003.3 hPa | - | - | - | - |
| 1777153801 | 12.78° C | 59% | 1003.3 hPa | - | - | - | - |
| 1777153201 | 12.78° C | 59% | 1003.7 hPa | - | - | - | - |
| 1777152601 | 12.78° C | 60% | 1003.7 hPa | - | - | - | - |
| 1777152001 | 12.78° C | 60% | 1004 hPa | - | - | - | - |
| 1777151401 | 12.78° C | 59% | 1003.7 hPa | - | - | - | - |
| 1777150801 | 12.78° C | 58% | 1003.7 hPa | - | - | - | - |
| 1777150201 | 12.78° C | 58% | 1003.7 hPa | - | - | - | - |
| 1777149601 | 12.78° C | 56% | 1003.7 hPa | - | - | - | - |
| 1777149001 | 12.78° C | 56% | 1003.7 hPa | - | - | - | - |
| 1777148401 | 12.78° C | 58% | 1004 hPa | - | - | - | - |
| 1777147801 | 12.78° C | 57% | 1004 hPa | - | - | - | - |
| 1777147201 | 12.78° C | 55% | 1004 hPa | - | - | - | - |
| 1777146601 | 12.78° C | 55% | 1004 hPa | - | - | - | - |
| 1777146001 | 12.78° C | 55% | 1004.7 hPa | - | - | - | - |
| 1777145400 | 12.78° C | 51% | 1004 hPa | - | - | - | - |
| 1777144801 | 13.89° C | 49% | 1004.7 hPa | - | - | - | - |
| 1777144201 | 15° C | 47% | 1004.7 hPa | - | - | - | - |
| 1777143600 | 15° C | 47% | 1004.7 hPa | - | - | - | - |
| 1777143001 | 15° C | 45% | 1004.7 hPa | - | - | - | - |
| 1777142401 | 15° C | 44% | 1004.7 hPa | - | - | - | - |
| 1777141801 | 15° C | 44% | 1005 hPa | - | - | - | - |
| 1777141201 | 16.11° C | 42% | 1004.7 hPa | - | - | - | - |
* Rain since midnight (hover to see other rain measurements)
** Current wind speed in m/s (hover to see current wind gust speed)